timestamp,wind_dir_avg,wind_spd_avg,wind_spd_max_dir,wind_spd_gust,battery_voltage,lat,long
2024-03-10 00:04:00+00:00,37.0,13.94,41.0,15.06,12.25,47.59359,-54.27349
2024-03-10 00:14:01+00:00,43.0,13.77,44.0,16.54,12.25,47.59359,-54.27349
2024-03-10 00:24:01+00:00,41.0,10.97,46.0,12.32,12.25,47.59359,-54.27349
2024-03-10 00:34:01+00:00,38.0,12.36,37.0,15.51,12.25,47.59359,-54.27349
2024-03-10 00:44:01+00:00,37.0,12.22,38.0,13.94,12.25,47.59359,-54.27349
2024-03-10 00:54:01+00:00,38.0,12.01,36.0,13.66,12.25,47.59359,-54.27349
2024-03-10 01:04:01+00:00,44.0,12.42,39.0,14.72,12.25,47.59359,-54.27349
2024-03-10 01:14:00+00:00,40.0,14.22,39.0,15.46,12.17,47.59359,-54.27349
2024-03-10 01:24:00+00:00,41.0,14.27,41.0,15.68,12.17,47.59359,-54.27349
2024-03-10 01:34:00+00:00,39.0,14.24,41.0,16.34,12.17,47.59359,-54.27349
2024-03-10 01:44:00+00:00,52.0,11.91,47.0,13.2,12.17,47.59359,-54.27349
2024-03-10 01:54:00+00:00,39.0,12.77,38.0,14.36,12.17,47.59359,-54.27349
2024-03-10 02:04:00+00:00,41.0,11.02,36.0,13.8,12.17,47.59359,-54.27349
2024-03-10 02:14:00+00:00,46.0,11.63,45.0,13.38,12.17,47.59359,-54.27349
2024-03-10 02:24:00+00:00,44.0,11.09,45.0,13.04,12.17,47.59359,-54.27349
2024-03-10 02:34:00+00:00,37.0,14.98,41.0,17.56,12.17,47.59359,-54.27349
2024-03-10 02:44:00+00:00,43.0,13.76,40.0,15.44,12.17,47.59359,-54.27349
2024-03-10 02:54:00+00:00,35.0,14.01,39.0,15.77,12.17,47.59359,-54.27349
2024-03-10 03:04:00+00:00,52.0,11.57,49.0,13.26,12.17,47.59359,-54.27349
2024-03-10 03:14:00+00:00,48.0,11.52,51.0,13.41,12.17,47.59359,-54.27349
2024-03-10 03:24:00+00:00,37.0,13.01,39.0,15.3,12.17,47.59359,-54.27349
2024-03-10 03:34:00+00:00,48.0,12.32,51.0,15.37,12.17,47.59359,-54.27349
2024-03-10 03:44:00+00:00,38.0,11.35,34.0,13.64,12.17,47.59359,-54.27349
2024-03-10 03:54:00+00:00,46.0,12.96,42.0,15.63,12.17,47.59359,-54.27349
2024-03-10 04:04:00+00:00,44.0,10.52,48.0,12.36,12.17,47.59359,-54.27349
2024-03-10 04:14:00+00:00,52.0,10.27,52.0,11.85,12.17,47.59359,-54.27349
2024-03-10 04:24:00+00:00,47.0,12.97,52.0,16.28,12.17,47.59359,-54.27349
2024-03-10 04:34:00+00:00,49.0,12.53,51.0,15.26,12.17,47.59359,-54.27349
2024-03-10 04:44:00+00:00,49.0,11.64,51.0,14.53,12.17,47.59359,-54.27349
2024-03-10 04:54:00+00:00,48.0,10.87,49.0,12.84,12.17,47.59359,-54.27349
2024-03-10 05:04:00+00:00,52.0,12.33,55.0,14.67,12.17,47.59359,-54.27349
2024-03-10 05:14:00+00:00,39.0,10.46,32.0,12.07,12.09,47.59359,-54.27349
2024-03-10 05:24:00+00:00,44.0,11.39,38.0,14.17,12.09,47.59359,-54.27349
2024-03-10 05:34:00+00:00,45.0,10.98,48.0,12.53,12.09,47.59359,-54.27349
2024-03-10 05:44:00+00:00,46.0,8.87,37.0,10.2,12.09,47.59359,-54.27349
2024-03-10 05:54:00+00:00,33.0,10.64,29.0,11.62,12.09,47.59359,-54.27349
2024-03-10 06:04:00+00:00,37.0,11.42,51.0,14.19,12.09,47.59359,-54.27349
2024-03-10 06:14:00+00:00,50.0,9.52,55.0,10.88,12.09,47.59359,-54.27349
2024-03-10 06:24:00+00:00,46.0,8.95,45.0,10.23,12.09,47.59359,-54.27349
2024-03-10 06:34:00+00:00,37.0,9.41,31.0,10.67,12.09,47.59359,-54.27349
2024-03-10 06:44:00+00:00,43.0,8.6,43.0,9.77,12.09,47.59359,-54.27349
2024-03-10 06:54:00+00:00,34.0,10.5,27.0,11.79,12.09,47.59359,-54.27349
2024-03-10 07:04:00+00:00,37.0,8.62,36.0,9.74,12.09,47.59359,-54.27349
2024-03-10 07:14:00+00:00,40.0,7.48,43.0,8.28,12.09,47.59359,-54.27349
2024-03-10 07:24:00+00:00,31.0,8.68,31.0,8.69,12.09,47.59359,-54.27349
2024-03-10 07:34:00+00:00,38.0,7.68,39.0,8.4,12.09,47.59359,-54.27349
2024-03-10 07:44:00+00:00,39.0,7.54,33.0,8.46,12.09,47.59359,-54.27349
2024-03-10 07:54:00+00:00,42.0,7.0,39.0,8.16,12.09,47.59359,-54.27349
2024-03-10 08:04:00+00:00,52.0,7.5,52.0,8.61,12.09,47.59359,-54.27349
2024-03-10 08:14:00+00:00,44.0,7.91,45.0,9.4,12.09,47.59359,-54.27349
2024-03-10 08:24:00+00:00,46.0,9.2,44.0,10.46,12.09,47.59359,-54.27349
2024-03-10 08:34:00+00:00,49.0,7.23,46.0,8.01,12.09,47.59359,-54.27349
2024-03-10 08:44:00+00:00,35.0,8.63,34.0,9.82,12.09,47.59359,-54.27349
2024-03-10 08:54:00+00:00,72.0,7.67,69.0,8.79,12.09,47.59359,-54.27349
2024-03-10 09:04:00+00:00,56.0,7.38,67.0,9.26,12.09,47.59359,-54.27349
2024-03-10 09:14:00+00:00,53.0,7.13,54.0,8.51,12.09,47.59359,-54.27349
2024-03-10 09:24:00+00:00,58.0,6.12,66.0,7.27,12.09,47.59359,-54.27349
2024-03-10 09:34:00+00:00,47.0,7.04,50.0,7.89,12.09,47.59359,-54.27349
2024-03-10 09:44:00+00:00,56.0,7.16,55.0,8.17,12.09,47.59359,-54.27349
2024-03-10 09:54:00+00:00,55.0,7.58,52.0,9.08,12.09,47.59359,-54.27349
2024-03-10 10:04:00+00:00,51.0,6.47,50.0,7.58,12.09,47.59359,-54.27349
2024-03-10 10:14:01+00:00,48.0,6.96,49.0,8.71,12.09,47.59359,-54.27349
2024-03-10 10:24:01+00:00,72.0,6.32,74.0,7.35,12.09,47.59359,-54.27349
2024-03-10 10:34:01+00:00,57.0,5.86,58.0,6.69,12.09,47.59359,-54.27349
2024-03-10 10:44:01+00:00,75.0,5.88,81.0,6.54,12.09,47.59359,-54.27349
2024-03-10 10:54:01+00:00,59.0,6.34,65.0,7.62,12.09,47.59359,-54.27349
2024-03-10 11:04:01+00:00,65.0,6.09,73.0,7.67,12.09,47.59359,-54.27349
2024-03-10 11:14:00+00:00,65.0,5.04,66.0,5.46,12.17,47.59359,-54.27349
2024-03-10 11:24:00+00:00,69.0,5.23,68.0,5.56,12.17,47.59359,-54.27349
2024-03-10 11:34:00+00:00,49.0,9.05,51.0,10.53,12.17,47.59359,-54.27349
2024-03-10 11:44:00+00:00,63.0,5.58,67.0,6.84,12.17,47.59359,-54.27349
2024-03-10 11:54:00+00:00,47.0,6.04,48.0,6.63,12.17,47.59359,-54.27349
2024-03-10 12:04:00+00:00,49.0,6.01,49.0,6.55,12.17,47.59359,-54.27349
2024-03-10 12:14:01+00:00,51.0,6.42,51.0,7.64,13.13,47.59359,-54.27349
2024-03-10 12:24:01+00:00,48.0,5.25,45.0,6.04,13.13,47.59359,-54.27349
2024-03-10 12:34:01+00:00,54.0,6.05,56.0,6.9,13.13,47.59359,-54.27349
2024-03-10 12:44:01+00:00,44.0,6.87,36.0,9.0,13.13,47.59359,-54.27349
2024-03-10 12:54:01+00:00,48.0,6.58,44.0,7.27,13.13,47.59359,-54.27349
2024-03-10 13:04:01+00:00,50.0,5.98,48.0,6.18,13.13,47.59359,-54.27349
2024-03-10 13:14:00+00:00,56.0,5.94,63.0,7.1,13.68,47.59359,-54.27349
2024-03-10 13:24:00+00:00,315.0,0.01,57.0,0.0,13.68,47.59359,-54.27349
2024-03-10 13:34:00+00:00,67.0,4.33,68.0,5.11,13.68,47.59359,-54.27349
2024-03-10 13:44:00+00:00,40.0,4.37,39.0,4.83,13.68,47.59359,-54.27349
2024-03-10 13:54:00+00:00,36.0,4.57,39.0,5.1,13.68,47.59359,-54.27349
2024-03-10 14:04:00+00:00,63.0,3.05,62.0,5.3,13.68,47.59359,-54.27349
2024-03-10 14:14:01+00:00,70.0,5.67,51.0,7.52,13.53,47.59359,-54.27349
2024-03-10 14:24:01+00:00,80.0,2.62,66.0,3.37,13.53,47.59359,-54.27349
2024-03-10 14:34:01+00:00,63.0,2.83,57.0,3.08,13.53,47.59359,-54.27349
2024-03-10 14:44:01+00:00,44.0,3.75,43.0,4.16,13.53,47.59359,-54.27349
2024-03-10 14:54:01+00:00,67.0,2.61,72.0,3.07,13.53,47.59359,-54.27349
2024-03-10 15:04:01+00:00,64.0,2.87,62.0,2.95,13.53,47.59359,-54.27349
2024-03-10 15:14:00+00:00,50.0,3.6,51.0,4.87,14.48,47.59359,-54.27349
2024-03-10 15:24:00+00:00,315.0,0.01,69.0,0.0,14.48,47.59359,-54.27349
2024-03-10 15:34:00+00:00,45.0,2.57,54.0,3.3,14.48,47.59359,-54.27349
2024-03-10 15:44:00+00:00,75.0,2.22,44.0,3.32,14.48,47.59359,-54.27349
2024-03-10 15:54:00+00:00,96.0,2.18,105.0,2.67,14.48,47.59359,-54.27349
2024-03-10 16:04:00+00:00,95.0,2.28,121.0,3.15,14.48,47.59359,-54.27349
2024-03-10 16:14:00+00:00,69.0,2.65,59.0,3.3,13.6,47.59359,-54.27349
2024-03-10 16:24:00+00:00,84.0,2.31,122.0,3.09,13.6,47.59359,-54.27349
2024-03-10 16:34:00+00:00,89.0,2.07,132.0,3.24,13.6,47.59359,-54.27349
2024-03-10 16:44:00+00:00,78.0,2.65,50.0,3.64,13.6,47.59359,-54.27349
2024-03-10 16:54:00+00:00,93.0,2.57,134.0,3.87,13.6,47.59359,-54.27349
2024-03-10 17:04:00+00:00,105.0,1.91,90.0,2.77,13.6,47.59359,-54.27349
2024-03-10 17:14:00+00:00,115.0,2.67,133.0,3.64,13.53,47.59359,-54.27349
2024-03-10 17:24:00+00:00,74.0,2.34,72.0,3.09,13.53,47.59359,-54.27349
2024-03-10 17:34:00+00:00,71.0,2.1,60.0,3.32,13.53,47.59359,-54.27349
2024-03-10 17:44:00+00:00,87.0,2.0,74.0,2.65,13.53,47.59359,-54.27349
2024-03-10 17:54:00+00:00,150.0,2.33,141.0,2.85,13.53,47.59359,-54.27349
2024-03-10 18:04:00+00:00,142.0,4.45,150.0,5.39,13.53,47.59359,-54.27349
2024-03-10 18:14:00+00:00,140.0,2.75,140.0,4.44,13.44,47.59359,-54.27349
2024-03-10 18:24:00+00:00,115.0,2.93,121.0,3.7,13.44,47.59359,-54.27349
2024-03-10 18:34:00+00:00,124.0,2.49,122.0,2.82,13.44,47.59359,-54.27349
2024-03-10 18:44:00+00:00,76.0,2.31,61.0,3.04,13.44,47.59359,-54.27349
2024-03-10 18:54:00+00:00,61.0,2.88,57.0,3.46,13.44,47.59359,-54.27349
2024-03-10 19:04:00+00:00,84.0,1.94,77.0,2.53,13.44,47.59359,-54.27349
2024-03-10 19:14:00+00:00,108.0,2.75,126.0,4.76,13.53,47.59359,-54.27349
2024-03-10 19:24:00+00:00,145.0,2.24,140.0,3.24,13.53,47.59359,-54.27349
2024-03-10 19:34:00+00:00,110.0,2.66,117.0,2.93,13.53,47.59359,-54.27349
2024-03-10 19:44:00+00:00,147.0,2.4,141.0,3.02,13.53,47.59359,-54.27349
2024-03-10 19:54:00+00:00,130.0,1.46,122.0,2.09,13.53,47.59359,-54.27349
2024-03-10 20:04:00+00:00,113.0,0.25,112.0,0.59,13.53,47.59359,-54.27349
2024-03-10 20:14:00+00:00,155.0,3.2,153.0,4.12,13.44,47.59359,-54.27349
2024-03-10 20:24:00+00:00,165.0,3.33,155.0,4.19,13.44,47.59359,-54.27349
2024-03-10 20:34:00+00:00,95.0,1.28,98.0,1.9,13.44,47.59359,-54.27349
2024-03-10 20:44:00+00:00,136.0,2.0,141.0,2.36,13.44,47.59359,-54.27349
2024-03-10 20:54:00+00:00,135.0,3.11,142.0,3.59,13.44,47.59359,-54.27349
2024-03-10 21:04:00+00:00,148.0,2.63,143.0,2.99,13.44,47.59359,-54.27349
2024-03-10 21:14:00+00:00,162.0,2.99,147.0,3.56,13.05,47.59359,-54.27349
2024-03-10 21:24:00+00:00,157.0,2.54,153.0,2.96,13.05,47.59359,-54.27349
2024-03-10 21:34:00+00:00,119.0,2.15,130.0,2.88,13.05,47.59359,-54.27349
2024-03-10 21:44:00+00:00,139.0,2.26,139.0,2.56,13.05,47.59359,-54.27349
2024-03-10 21:54:00+00:00,127.0,2.78,126.0,3.63,13.05,47.59359,-54.27349
2024-03-10 22:04:00+00:00,143.0,2.37,142.0,2.83,13.05,47.59359,-54.27349
2024-03-10 22:14:00+00:00,120.0,2.46,119.0,3.22,12.41,47.59359,-54.27349
2024-03-10 22:24:00+00:00,145.0,3.2,140.0,3.87,12.41,47.59359,-54.27349
2024-03-10 22:34:00+00:00,147.0,3.35,137.0,4.26,12.41,47.59359,-54.27349
2024-03-10 22:44:00+00:00,173.0,2.99,182.0,3.45,12.41,47.59359,-54.27349
2024-03-10 22:54:00+00:00,158.0,3.8,145.0,4.45,12.41,47.59359,-54.27349
2024-03-10 23:04:00+00:00,155.0,3.24,161.0,3.58,12.41,47.59359,-54.27349
2024-03-10 23:14:01+00:00,153.0,3.42,140.0,4.24,12.25,47.59359,-54.27349
2024-03-10 23:24:01+00:00,140.0,2.72,133.0,3.43,12.25,47.59359,-54.27349
2024-03-10 23:34:01+00:00,122.0,3.03,122.0,3.49,12.25,47.59359,-54.27349
2024-03-10 23:44:01+00:00,129.0,3.47,132.0,3.98,12.25,47.59359,-54.27349
2024-03-10 23:54:01+00:00,140.0,3.33,139.0,4.15,12.25,47.59359,-54.27349
